GW2442 Weather Reports


time (UTC)temp
C
wind
direction
speed
KPH
gust
KPH
rain 1hr
cm
rain 24hr
cm
rain mn
cm
humidity
%
barometer
mb
20260506202731 15 117 0.0 4.8 0.00 0.74 0.74 99 1004.0
20260506202227 15 185 0.0 3.2 0.00 0.74 0.74 99 1004.1
20260506201724 15 240 1.6 3.2 0.00 0.74 0.74 99 1004.1
20260506201220 15 156 1.6 1.6 0.00 0.74 0.74 99 1004.1
20260506200717 15 161 1.6 3.2 0.00 0.74 0.74 99 1004.2
20260506200214 15 160 1.6 3.2 0.00 0.74 0.74 98 1004.2
20260506195710 15 134 0.0 1.6 0.00 0.74 0.74 99 1004.2
20260506195207 15 85 1.6 4.8 0.00 0.74 0.74 98 1004.1
20260506194659 15 164 1.6 4.8 0.00 0.74 0.74 98 1004.3
20260506194155 15 181 1.6 4.8 0.00 0.74 0.74 98 1004.3
20260506193653 15 163 1.6 1.6 0.18 0.74 0.74 98 1004.3
20260506193149 15 137 0.0 3.2 0.18 0.74 0.74 98 1004.1
20260506192646 15 75 0.0 1.6 0.00 0.71 0.71 98 1004.6
20260506192142 15 96 0.0 3.2 0.00 0.71 0.71 98 1004.4
20260506191640 15 157 1.6 4.8 0.00 0.71 0.71 98 1004.7
20260506191135 15 125 0.0 3.2 0.00 0.71 0.71 98 1004.8
20260506190633 15 165 1.6 3.2 0.00 0.71 0.71 98 1004.6
20260506190130 15 159 1.6 8.0 0.00 0.71 0.71 98 1004.7
20260506185627 15 106 3.2 8.0 0.00 0.71 0.71 98 1004.7
20260506185123 15 163 1.6 3.2 0.13 0.71 0.71 98 1004.8
20260506184621 15 151 1.6 3.2 0.13 0.71 0.71 98 1004.9
20260506184118 15 349 4.8 4.8 0.00 0.69 0.69 98 1004.8
20260506183614 15 116 1.6 1.6 0.00 0.69 0.69 98 1005.0
20260506183110 15 45 3.2 8.0 0.18 0.69 0.69 98 1005.1
20260506182608 15 145 0.0 3.2 0.18 0.69 0.69 98 1005.0
20260506182105 15 24 3.2 3.2 0.00 0.66 0.66 98 1005.0
20260506181603 15 97 3.2 3.2 0.13 0.66 0.66 98 1005.2
20260506181059 15 163 3.2 9.7 0.13 0.66 0.66 98 1005.1
20260506180556 14 189 0.0 3.2 0.00 0.64 0.64 98 1005.3
20260506180053 14 83 3.2 3.2 0.00 0.64 0.64 98 1005.3
20260506175549 14 159 1.6 4.8 0.00 0.64 0.64 98 1005.2
20260506175045 14 111 0.0 3.2 0.18 0.64 0.64 98 1005.3
20260506174544 14 100 0.0 8.0 0.00 0.61 0.61 98 1005.3
20260506174040 14 125 0.0 3.2 0.00 0.61 0.61 98 1005.3
20260506173538 14 57 1.6 3.2 0.18 0.61 0.61 98 1005.4
20260506173034 14 146 0.0 4.8 0.18 0.61 0.61 98 1005.4
20260506172532 14 138 1.6 4.8 0.13 0.58 0.58 98 1005.4
20260506172028 15 166 1.6 1.6 0.30 0.58 0.58 98 1005.1
20260506171525 14 133 0.0 1.6 0.18 0.56 0.56 97 1005.3
20260506171023 14 119 0.0 8.0 0.13 0.53 0.53 97 1005.2
20260506170520 14 64 1.6 1.6 0.13 0.53 0.53 97 1005.3
20260506170017 14 70 3.2 9.7 0.00 0.51 0.51 97 1005.4
20260506165515 14 91 0.0 9.7 0.18 0.51 0.51 97 1005.5
20260506165006 14 110 0.0 4.8 0.18 0.51 0.51 97 1005.4
20260506164503 14 114 1.6 4.8 0.13 0.48 0.48 97 1005.2
20260506164000 14 89 1.6 4.8 0.30 0.48 0.48 97 1005.6
20260506163455 14 155 1.6 4.8 0.18 0.46 0.46 97 1005.3
20260506162949 14 118 0.0 4.8 0.00 0.43 0.43 97 1005.5
20260506162448 14 113 1.6 3.2 0.13 0.43 0.43 97 1005.4
20260506161940 15 11 3.2 9.7 0.00 0.41 0.41 97 1005.4
20260506161438 15 122 1.6 4.8 0.00 0.41 0.41 97 1005.4
20260506160934 15 91 1.6 3.2 0.18 0.41 0.41 97 1005.6
20260506160432 15 154 1.6 1.6 0.18 0.41 0.41 96 1005.6
20260506155929 15 170 3.2 8.0 0.13 0.38 0.38 96 1005.4
20260506155426 15 81 0.0 3.2 0.43 0.38 0.38 96 1005.7
20260506153548 15 169 1.6 3.2 0.13 0.25 0.25 95 1006.3
20260506153045 15 345 1.6 8.0 0.00 0.23 0.23 95 1006.1
20260506152542 15 122 0.0 3.2 0.18 0.23 0.23 95 1006.1
20260506152040 15 68 1.6 3.2 0.30 0.23 0.23 95 1005.9
20260506151538 15 140 0.0 3.2 0.13 0.20 0.20 95 1006.0
20260506151035 15 327 1.6 3.2 0.00 0.18 0.18 95 1005.8
20260506150531 15 138 1.6 1.6 0.18 0.18 0.18 95 1006.3
20260506150023 15 88 0.0 3.2 0.18 0.18 0.18 95 1006.1
20260506145519 15 123 0.0 1.6 0.00 0.15 0.15 95 1006.1
20260506145017 15 132 0.0 0.0 0.13 0.15 0.15 95 1006.0
20260506144513 15 121 0.0 1.6 0.13 0.15 0.15 94 1006.1
20260506144011 15 125 0.0 1.6 0.18 0.13 0.13 94 1006.3
20260506143509 15 100 1.6 1.6 0.00 0.10 0.10 94 1006.2
20260506143007 15 144 1.6 1.6 0.13 0.10 0.10 94 1006.3
20260506142504 15 113 0.0 1.6 0.18 0.08 0.08 93 1006.5
20260506142002 15 137 0.0 1.6 0.00 0.05 0.05 93 1006.6
20260506141500 15 142 0.0 3.2 0.00 0.05 0.05 92 1006.5
20260506140958 15 151 1.6 4.8 0.13 0.05 0.05 92 1006.3
20260506140455 15 272 1.6 3.2 0.13 0.05 0.05 91 1006.4
20260506135951 15 77 1.6 3.2 0.00 0.03 0.03 91 1006.6
20260506135449 15 119 0.0 1.6 0.00 0.03 0.03 91 1006.5
20260506134945 15 123 0.0 3.2 0.18 0.03 0.03 90 1006.5
20260506134441 15 102 0.0 1.6 0.18 0.03 0.03 89 1006.5
20260506133938 15 119 0.0 1.6 0.00 0.00 0.00 88 1006.6
20260506133435 16 128 0.0 3.2 0.00 0.00 0.00 88 1006.6
20260506132931 16 116 0.0 0.0 0.00 0.00 0.00 87 1006.9
20260506132429 16 79 1.6 1.6 0.00 0.00 0.00 86 1006.7
20260506131926 16 101 1.6 3.2 0.00 0.00 0.00 85 1006.8
20260506131423 16 184 1.6 4.8 0.00 0.00 0.00 83 1006.6
20260506130920 16 136 1.6 8.0 0.00 0.00 0.00 81 1006.6
20260506130416 17 3 6.4 9.7 0.00 0.00 0.00 80 1006.7
20260506125914 17 161 3.2 11.3 0.00 0.00 0.00 78 1006.5
20260506125412 17 156 1.6 4.8 0.00 0.00 0.00 78 1006.3
20260506124910 17 143 1.6 1.6 0.00 0.00 0.00 79 1006.3
20260506124407 17 155 4.8 8.0 0.00 0.00 0.00 79 1006.4
20260506123905 17 176 3.2 3.2 0.00 0.00 0.00 79 1006.3
20260506123403 17 143 0.0 3.2 0.00 0.00 0.00 80 1006.4
20260506122900 17 106 1.6 1.6 0.00 0.00 0.00 79 1006.3
20260506122356 17 134 0.0 3.2 0.00 0.00 0.00 79 1006.2
20260506121855 17 112 1.6 1.6 0.00 0.00 0.00 79 1006.3
20260506121352 17 80 1.6 4.8 0.00 0.00 0.00 79 1006.4
20260506120848 17 33 1.6 8.0 0.00 0.00 0.00 78 1006.5
20260506120346 17 117 0.0 1.6 0.00 0.00 0.00 79 1006.5
20260506115843 17 151 1.6 3.2 0.00 0.00 0.00 78 1006.6
20260506115342 17 104 0.0 0.0 0.00 0.00 0.00 79 1006.6
20260506114839 17 178 1.6 3.2 0.00 0.00 0.00 78 1006.7
20260506114337 16 153 1.6 4.8 0.00 0.00 0.00 78 1006.5
20260506113835 17 169 1.6 4.8 0.00 0.00 0.00 78 1006.5
20260506113332 16 103 4.8 4.8 0.00 0.00 0.00 78 1006.6
20260506112829 16 31 1.6 3.2 0.00 0.00 0.00 78 1006.5
20260506112326 17 114 0.0 1.6 0.00 0.00 0.00 78 1006.8
20260506111824 17 92 0.0 3.2 0.00 0.00 0.00 78 1006.7
20260506111322 17 129 1.6 11.3 0.00 0.00 0.00 78 1006.6
20260506110819 17 112 0.0 3.2 0.00 0.00 0.00 78 1006.5
20260506110316 16 334 6.4 11.3 0.00 0.00 0.00 77 1006.4
20260506105812 17 216 1.6 4.8 0.00 0.00 0.00 77 1006.2
20260506105309 16 156 1.6 4.8 0.00 0.00 0.00 77 1006.3
20260506104807 16 110 0.0 3.2 0.00 0.00 0.00 77 1006.3
20260506104304 16 88 1.6 3.2 0.00 0.00 0.00 77 1006.1
20260506103802 16 108 0.0 4.8 0.00 0.00 0.00 77 1006.2
20260506103259 16 100 0.0 1.6 0.00 0.00 0.00 77 1006.1
20260506102756 16 103 0.0 3.2 0.00 0.00 0.00 76 1006.0
20260506102254 16 115 0.0 3.2 0.00 0.00 0.00 76 1005.9
20260506101751 16 359 3.2 3.2 0.00 0.00 0.00 76 1006.0
20260506101247 16 97 0.0 3.2 0.00 0.00 0.00 76 1006.0
20260506100745 16 177 3.2 8.0 0.00 0.00 0.00 76 1006.1
20260506100243 16 158 1.6 4.8 0.00 0.00 0.00 76 1006.2
20260506095742 16 99 0.0 3.2 0.00 0.00 0.00 75 1006.1
20260506095238 16 77 1.6 1.6 0.00 0.00 0.00 75 1006.0
20260506094735 16 111 1.6 3.2 0.00 0.00 0.00 75 1006.1
20260506094233 16 211 3.2 8.0 0.00 0.00 0.00 75 1005.9
20260506093732 16 169 0.0 3.2 0.00 0.00 0.00 74 1006.2
20260506093228 16 31 1.6 3.2 0.00 0.00 0.00 74 1006.1
20260506092726 16 122 0.0 3.2 0.00 0.00 0.00 74 1006.0
20260506092224 16 84 1.6 1.6 0.00 0.00 0.00 73 1006.1
20260506091721 16 96 0.0 3.2 0.00 0.00 0.00 73 1005.9
20260506091218 16 125 0.0 3.2 0.00 0.00 0.00 73 1006.1
20260506090716 17 116 1.6 3.2 0.00 0.00 0.00 73 1006.1
20260506090212 17 158 1.6 1.6 0.00 0.00 0.00 72 1006.2
20260506085710 17 94 1.6 3.2 0.00 0.00 0.00 72 1006.3
20260506085205 17 172 1.6 4.8 0.00 0.00 0.00 72 1006.2
20260506084702 17 73 0.0 1.6 0.00 0.00 0.00 71 1006.4
20260506084159 17 113 1.6 3.2 0.00 0.00 0.00 71 1006.4
20260506083655 16 118 1.6 3.2 0.00 0.00 0.00 71 1006.4
20260506083154 16 179 0.0 4.8 0.00 0.00 0.00 71 1006.4
20260506082650 16 160 1.6 1.6 0.00 0.00 0.00 71 1006.4
20260506082145 16 140 1.6 3.2 0.00 0.00 0.00 71 1006.4
20260506081643 16 122 0.0 1.6 0.00 0.00 0.00 72 1006.3
20260506081141 16 110 0.0 1.6 0.00 0.00 0.00 72 1006.4
20260506080638 16 107 1.6 3.2 0.00 0.00 0.00 71 1006.2
20260506080135 16 123 0.0 1.6 0.00 0.00 0.00 71 1006.3
20260506073119 16 169 1.6 1.6 0.00 0.00 0.00 69 1006.6
20260506072615 16 118 0.0 1.6 0.00 0.00 0.00 69 1006.7
20260506072113 16 151 0.0 1.6 0.00 0.00 0.00 69 1006.7
20260506071611 16 72 1.6 1.6 0.00 0.00 0.00 68 1006.5
20260506071108 16 104 1.6 1.6 0.00 0.00 0.00 68 1006.4
20260506070605 17 107 0.0 3.2 0.00 0.00 0.00 67 1006.7
20260506062039 17 156 1.6 8.0 0.00 0.00 0.00 63 1007.0
20260506061535 17 97 0.0 3.2 0.00 0.00 0.00 63 1007.2
20260506061033 17 123 0.0 1.6 0.00 0.00 0.00 65 1007.2
20260506060531 17 50 1.6 3.2 0.00 0.00 0.00 65 1007.3
20260506051000 18 108 1.6 1.6 0.00 0.00 0.00 61 1007.2
20260506050458 18 99 0.0 3.2 0.00 0.00 0.00 61 1007.6
20260506044948 18 95 0.0 1.6 0.00 0.00 0.00 60 1007.5
20260506044446 18 128 0.0 4.8 0.00 0.00 0.00 59 1007.4
20260506043943 18 111 1.6 3.2 0.00 0.00 0.00 59 1007.5
20260506043440 18 39 1.6 3.2 0.00 0.00 0.00 59 1007.2
20260506042938 18 97 1.6 3.2 0.00 0.00 0.00 58 1007.5
20260506042437 18 134 0.0 9.7 0.00 0.00 0.00 57 1007.4
20260506041935 18 289 3.2 4.8 0.00 0.00 0.00 57 1007.6
20260506041432 18 130 1.6 4.8 0.00 0.00 0.00 57 1007.5
20260506040929 18 42 3.2 4.8 0.00 0.00 0.00 57 1007.5
20260506040427 18 59 3.2 3.2 0.00 0.00 0.00 56 1007.3
20260506035922 18 56 1.6 1.6 0.00 0.03 0.03 56 1007.3
20260506035420 19 102 0.0 1.6 0.00 0.03 0.03 56 1007.3
20260506034917 19 156 1.6 1.6 0.00 0.03 0.03 55 1007.6
20260506034414 19 130 1.6 1.6 0.00 0.03 0.03 54 1007.6
20260506033911 19 112 1.6 3.2 0.00 0.03 0.03 54 1007.2
20260506033408 19 139 1.6 3.2 0.00 0.03 0.03 53 1007.4
20260506032905 20 120 1.6 1.6 0.00 0.03 0.03 54 1007.4
20260506032402 20 157 3.2 8.0 0.00 0.03 0.03 52 1007.2
20260506031858 20 115 1.6 4.8 0.00 0.03 0.03 53 1007.4
20260506031356 20 120 0.0 4.8 0.00 0.03 0.03 52 1007.3
20260506030854 20 142 3.2 3.2 0.00 0.03 0.03 53 1007.4
20260506030352 20 95 0.0 11.3 0.00 0.03 0.03 52 1007.3
20260506025848 20 149 0.0 3.2 0.00 0.03 0.03 52 1007.4
20260506025344 20 103 1.6 3.2 0.00 0.03 0.03 52 1007.4
20260506024842 20 138 0.0 4.8 0.00 0.03 0.03 51 1007.4
20260506024338 20 175 1.6 3.2 0.00 0.03 0.03 51 1007.4
20260506023835 20 145 1.6 1.6 0.00 0.03 0.03 51 1007.5
20260506023331 20 125 0.0 1.6 0.00 0.03 0.03 50 1007.4
20260506022828 20 133 3.2 11.3 0.00 0.03 0.03 50 1007.4
20260506022326 20 117 3.2 3.2 0.00 0.03 0.03 49 1007.4
20260506021824 21 140 1.6 3.2 0.00 0.03 0.03 48 1007.3
20260506021321 21 117 1.6 4.8 0.00 0.03 0.03 47 1007.6
20260506020817 21 145 1.6 3.2 0.00 0.03 0.03 47 1007.3
20260506020315 21 128 1.6 3.2 0.00 0.03 0.03 47 1007.2
20260506015813 21 113 0.0 4.8 0.00 0.03 0.03 46 1007.3
20260506015310 21 179 1.6 3.2 0.00 0.03 0.03 46 1007.2
20260506014806 21 114 1.6 4.8 0.00 0.03 0.03 45 1007.0
20260506014303 21 91 1.6 4.8 0.00 0.03 0.03 46 1007.0
20260506013800 21 122 1.6 8.0 0.00 0.03 0.03 46 1006.8
20260506013257 21 136 0.0 1.6 0.00 0.03 0.03 46 1006.9
20260506012754 21 129 0.0 3.2 0.00 0.03 0.03 46 1006.9
20260506012251 21 105 0.0 3.2 0.00 0.03 0.03 46 1006.9
20260506011748 21 42 1.6 4.8 0.00 0.03 0.03 46 1006.6
20260506011244 21 154 1.6 3.2 0.00 0.03 0.03 46 1006.5
20260506010743 21 133 1.6 9.7 0.00 0.03 0.03 46 1006.8
20260506010239 21 141 1.6 3.2 0.00 0.03 0.03 46 1006.6
20260506005737 21 181 1.6 3.2 0.00 0.03 0.03 45 1006.7
20260506005233 21 172 4.8 8.0 0.00 0.03 0.03 44 1006.6
20260506004729 21 182 1.6 4.8 0.00 0.03 0.03 46 1006.6
20260506004227 22 101 1.6 3.2 0.00 0.03 0.03 44 1006.5
20260506003723 22 110 0.0 3.2 0.00 0.03 0.03 44 1006.4
20260506003220 22 186 3.2 4.8 0.00 0.03 0.03 43 1006.5
20260506002715 22 318 1.6 4.8 0.00 0.03 0.03 43 1006.4
20260506002212 22 77 4.8 8.0 0.00 0.03 0.03 42 1006.3
20260506001708 22 13 3.2 9.7 0.00 0.03 0.03 42 1006.2
20260506001205 22 97 1.6 11.3 0.00 0.03 0.03 43 1006.3
20260506000702 22 144 0.0 8.0 0.00 0.03 0.03 43 1006.2
20260506000200 22 93 1.6 3.2 0.00 0.03 0.03 43 1006.2
20260505235657 22 120 0.0 4.8 0.00 0.03 0.03 42 1006.1
20260505235155 22 211 3.2 8.0 0.00 0.03 0.03 43 1006.1
20260505234651 23 167 1.6 8.0 0.00 0.03 0.03 42 1006.1
20260505234149 23 296 3.2 4.8 0.00 0.03 0.03 43 1005.9
20260505233645 22 103 0.0 4.8 0.00 0.03 0.03 43 1006.1
20260505233143 23 66 1.6 1.6 0.00 0.03 0.03 43 1006.0
20260505232640 23 168 1.6 9.7 0.00 0.03 0.03 43 1006.2
20260505232138 23 149 0.0 8.0 0.00 0.03 0.03 43 1006.0
20260505231634 23 115 3.2 3.2 0.00 0.03 0.03 43 1006.1
20260505231133 23 114 0.0 3.2 0.00 0.03 0.03 43 1005.7
20260505230631 23 147 0.0 3.2 0.00 0.03 0.03 42 1005.9
20260505230127 23 136 0.0 1.6 0.00 0.03 0.03 42 1005.8
20260505225623 23 114 0.0 3.2 0.00 0.03 0.03 42 1005.6
20260505225120 23 156 3.2 8.0 0.00 0.03 0.03 41 1005.8
20260505224616 23 23 6.4 11.3 0.00 0.03 0.03 42 1005.6
20260505224114 23 114 1.6 4.8 0.00 0.03 0.03 41 1005.7
20260505223611 23 159 3.2 4.8 0.00 0.03 0.03 40 1005.7
20260505223107 23 174 1.6 9.7 0.00 0.03 0.03 41 1005.7
20260505222604 23 150 1.6 4.8 0.00 0.03 0.03 40 1005.6
20260505222100 23 116 3.2 8.0 0.00 0.03 0.03 40 1005.5
20260505221557 24 99 0.0 1.6 0.00 0.03 0.03 39 1005.6
20260505221053 24 209 3.2 8.0 0.00 0.03 0.03 39 1005.5
20260505220551 24 189 4.8 9.7 0.00 0.03 0.03 38 1005.6
20260505220048 24 122 6.4 8.0 0.00 0.03 0.03 38 1005.4
20260505215546 24 179 1.6 4.8 0.00 0.03 0.03 38 1005.4
20260505215044 24 32 4.8 12.9 0.00 0.03 0.03 38 1005.4
20260505214542 24 133 0.0 8.0 0.00 0.03 0.03 39 1005.3
20260505214038 25 157 1.6 9.7 0.00 0.03 0.03 38 1005.3
20260505213536 25 78 3.2 11.3 0.00 0.03 0.03 38 1005.2
20260505213032 25 47 3.2 4.8 0.00 0.03 0.03 38 1005.1
20260505212529 25 104 1.6 11.3 0.00 0.03 0.03 38 1005.3
20260505212026 25 161 4.8 11.3 0.00 0.03 0.03 37 1005.1
20260505211523 25 147 3.2 11.3 0.00 0.03 0.03 37 1005.1
20260505211020 25 118 1.6 9.7 0.00 0.03 0.03 38 1005.2
20260505210516 25 219 4.8 11.3 0.00 0.03 0.03 38 1004.9
20260505210014 26 152 1.6 11.3 0.00 0.03 0.03 37 1005.0
20260505205512 26 319 3.2 9.7 0.00 0.03 0.03 37 1005.1
20260505205009 26 157 6.4 9.7 0.00 0.03 0.03 36 1005.1
20260505204506 27 109 4.8 9.7 0.00 0.03 0.03 36 1004.9
20260505204003 27 56 1.6 9.7 0.00 0.03 0.03 32 1005.0
20260505203459 27 359 8.0 16.1 0.00 0.03 0.03 30 1005.0
20260505202956 27 312 4.8 11.3 0.00 0.03 0.03 28 1004.9